This is the latest recevied weather packets stored in our database for station/object W4MLN-1. If no packets are shown the sender has not sent any weather packets the latest 10 day(s).
| Time | Temp. | Humidity | Pressure | Rain* | Wind** | Luminosity | Snow |
|---|---|---|---|---|---|---|---|
| 1778103437 | 20° C | 72% | 1012.8 hPa | 0 mm | - | 57 W/m² | - |
| 1778103138 | 20° C | 72% | 1012.7 hPa | 0 mm | - | 66 W/m² | - |
| 1778102837 | 20° C | 71% | 1012.6 hPa | 0 mm | - | 86 W/m² | - |
| 1778102534 | 20.56° C | 71% | 1012.5 hPa | 0 mm | - | 110 W/m² | - |
| 1778102235 | 20.56° C | 71% | 1012.4 hPa | 0 mm | - | 125 W/m² | - |
| 1778101932 | 20.56° C | 70% | 1012.5 hPa | 0 mm | - | 149 W/m² | - |
| 1778101632 | 20.56° C | 70% | 1012.4 hPa | 0 mm | - | 247 W/m² | - |
| 1778101332 | 20.56° C | 69% | 1012.2 hPa | 0 mm | - | 358 W/m² | - |
| 1778101032 | 21.11° C | 69% | 1012.3 hPa | 0 mm | - | 321 W/m² | - |
| 1778100733 | 21.11° C | 68% | 1012.2 hPa | 0 mm | - | 325 W/m² | - |
| 1778100432 | 21.11° C | 69% | 1012.1 hPa | 0 mm | - | 396 W/m² | - |
| 1778100133 | 21.11° C | 69% | 1012.1 hPa | 0 mm | - | 474 W/m² | - |
| 1778099832 | 20.56° C | 69% | 1011.7 hPa | 0 mm | - | 385 W/m² | - |
| 1778099533 | 21.11° C | 69% | 1011.8 hPa | 0 mm | - | 286 W/m² | - |
| 1778099232 | 21.11° C | 69% | 1012 hPa | 0 mm | - | 291 W/m² | - |
| 1778098930 | 20.56° C | 69% | 1012.2 hPa | 0 mm | - | 329 W/m² | - |
| 1778098629 | 20.56° C | 69% | 1012.3 hPa | 0 mm | - | 387 W/m² | - |
| 1778098330 | 20.56° C | 69% | 1012.3 hPa | 0 mm | - | 364 W/m² | - |
| 1778098030 | 21.11° C | 69% | 1012.2 hPa | 0 mm | - | 423 W/m² | - |
| 1778097730 | 21.11° C | 67% | 1012.2 hPa | 0 mm | - | 482 W/m² | - |
| 1778097430 | 21.11° C | 67% | 1012.3 hPa | 0 mm | - | 505 W/m² | - |
| 1778097130 | 21.11° C | 67% | 1012.5 hPa | 0 mm | - | 585 W/m² | - |
| 1778096831 | 21.11° C | 67% | 1012.3 hPa | 0 mm | - | 572 W/m² | - |
| 1778096530 | 21.11° C | 67% | 1012.6 hPa | 0 mm | - | 573 W/m² | - |
| 1778096231 | 21.11° C | 68% | 1012.5 hPa | 0 mm | - | 583 W/m² | - |
* Rain latest hour (hover to see other rain measurements)
** Current wind speed in m/s (hover to see current wind gust speed)